Rochester, NY

10:11 AM EDT on August 20, 2017 (GMT -0400)
Greater Rochester International

Weather History for KROC - October, 2014

Change the Weather History Date:

Friday, October 10, 2014

  Actual Average Record
Temperature  
Mean Temperature 49 °F 52 °F  
Max Temperature 59 °F 62 °F 89 °F (1949)
Min Temperature 39 °F 43 °F 27 °F (1972)
Degree Days  
Heating Degree Days 16 13  
Month to date heating degree days 86 112  
Since 1 July heating degree days 235 293  
Cooling Degree Days 0 0  
Month to date cooling degree days 0 0  
Year to date cooling degree days 532 534  
Moisture  
Dew Point 39 °F    
Average Humidity 70    
Maximum Humidity 92    
Minimum Humidity 47    
Precipitation  
Precipitation 0.00 in 0.09 in 1.25 in (1922)
Month to date precipitation 0.57 0.93  
Year to date precipitation 26.93 26.91  
Snow  
Snow 0.00 in 0.00 in T in (1993)
Month to date snowfall 0.0 0.0  
Since 1 July snowfall 0.0 0.0  
Since 1 September snowfall 0.0 0.0  
Snow Depth 0.00 in    
Sea Level Pressure  
Sea Level Pressure 30.12 in    
Wind  
Wind Speed 6 mph (West)    
Max Wind Speed 16 mph    
Max Gust Speed 22 mph    
Visibility 10 miles    
Events      
T = Trace of Precipitation, MM = Missing Value Source: NWS Daily Summary

Daily Weather History Graph

Daily Weather History Graph

Search for Another Location

Airport or City:

Trip Planner

Search our weather history database for the weather conditions in past years. The results will help you decide how hot, cold, wet, or windy it might be!

Date:

Astronomy

Oct. 10, 2014 Rise Set
Actual Time 7:18 AM EDT 6:36 PM EDT
Civil Twilight 6:49 AM EDT 7:04 PM EDT
Nautical Twilight 6:16 AM EDT 7:37 PM EDT
Astronomical Twilight 5:43 AM EDT 8:10 PM EDT
Moon 8:11 PM EDT (10/10) 9:40 AM EDT (10/10)
Length of Visible Light 12h 14m
Length of Day
11h 17m
Waning Gibbous, 94% of the Moon is Illuminated
Oct 10
Waning Gibbous
Oct 15
Last Quarter
Oct 23
New
Oct 30
First Quarter
Nov 6
Full

Hourly Weather History & Observations

Time (EDT) Temp. Windchill Dew Point Humidity Pressure Visibility Wind Dir Wind Speed Gust Speed Precip Events Conditions
12:54 AM 41.0 °F 37.1 °F 37.0 °F 86% 30.08 in 10.0 mi SW 5.8 mph - N/A   Partly Cloudy
1:54 AM 42.1 °F 38.4 °F 37.0 °F 82% 30.08 in 10.0 mi WSW 5.8 mph - N/A   Scattered Clouds
2:54 AM 39.9 °F 35.1 °F 36.0 °F 86% 30.09 in 10.0 mi WSW 6.9 mph - N/A   Mostly Cloudy
3:54 AM 39.9 °F 36.7 °F 37.0 °F 89% 30.08 in 10.0 mi SW 4.6 mph - N/A   Overcast
4:54 AM 42.8 °F 39.3 °F 39.2 °F 87% 30.08 in 10.0 mi SW 5.8 mph - N/A   Overcast
5:54 AM 42.1 °F 39.2 °F 39.0 °F 89% 30.11 in 10.0 mi WSW 4.6 mph - N/A   Overcast
6:54 AM 42.1 °F 37.7 °F 39.0 °F 89% 30.12 in 10.0 mi SW 6.9 mph - N/A   Mostly Cloudy
7:54 AM 42.1 °F 39.2 °F 39.0 °F 89% 30.12 in 10.0 mi SW 4.6 mph - N/A   Mostly Cloudy
8:54 AM 46.0 °F 41.9 °F 41.0 °F 83% 30.14 in 10.0 mi WSW 8.1 mph - N/A   Mostly Cloudy
9:54 AM 48.9 °F - 42.1 °F 77% 30.14 in 10.0 mi South 5.8 mph - N/A   Mostly Cloudy
10:54 AM 53.1 °F - 39.9 °F 61% 30.14 in 10.0 mi West 10.4 mph - N/A   Scattered Clouds
11:54 AM 55.0 °F - 37.9 °F 53% 30.13 in 10.0 mi West 11.5 mph 17.3 mph N/A   Scattered Clouds
12:54 PM 55.0 °F - 39.9 °F 57% 30.13 in 10.0 mi NNW 6.9 mph - N/A   Mostly Cloudy
1:54 PM 57.0 °F - 37.9 °F 49% 30.11 in 10.0 mi West 11.5 mph 16.1 mph N/A   Mostly Cloudy
2:54 PM 57.0 °F - 39.0 °F 51% 30.11 in 10.0 mi NW 5.8 mph - N/A   Mostly Cloudy
3:54 PM 55.9 °F - 39.0 °F 53% 30.11 in 10.0 mi Variable 5.8 mph - N/A   Mostly Cloudy
4:54 PM 55.0 °F - 39.9 °F 57% 30.11 in 10.0 mi NW 10.4 mph - N/A   Mostly Cloudy
5:54 PM 53.1 °F - 39.0 °F 59% 30.12 in 10.0 mi North 8.1 mph - N/A   Mostly Cloudy
6:54 PM 51.1 °F - 39.0 °F 63% 30.13 in 10.0 mi NNW 4.6 mph - N/A   Scattered Clouds
7:54 PM 48.9 °F - 37.9 °F 66% 30.14 in 10.0 mi NNW 5.8 mph - N/A   Scattered Clouds
8:54 PM 48.0 °F - 37.9 °F 68% 30.14 in 10.0 mi NNW 6.9 mph - N/A   Mostly Cloudy
9:54 PM 45.0 °F 43.5 °F 39.0 °F 80% 30.14 in 10.0 mi South 3.5 mph - N/A   Mostly Cloudy
10:54 PM 44.1 °F 42.5 °F 39.0 °F 82% 30.14 in 10.0 mi West 3.5 mph - N/A   Mostly Cloudy
11:54 PM 43.0 °F - 39.0 °F 86% 30.14 in 10.0 mi Calm Calm - N/A   Mostly Cloudy